Location: Celina Division
(33.3022°N, 96.7580°W)
Time: 23:12:00
(UTC+00:00)

N. Korean satellite - Pass Details

Date: 30 November 2022
Orbit: 407 x 442 km, 97.3° (Epoch: 05 February)

Event Time Altitude Azimuth Distance (km) Brightness Sun altitude
Rises 12:17:40 0° 356° (N) 2,518 10.0 -11.3°
Reaches altitude 10° 12:20:00 10° 342° (NNW) 1,632 8.9 -10.9°
Maximum altitude 12:22:51 24° 288° (WNW) 1,013 7.6 -10.3°
Drops below altitude 10° 12:25:40 10° 233° (SW) 1,604 8.9 -9.7°
Sets 12:27:56 0° 218° (SW) 2,463 10.0 -9.3°
